Memphis, TN

6:01 PM CST on February 08, 2016 (GMT -0600)
Memphis International

Weather History for KMEM - October, 2014

Change the Weather History Date:

Sunday, October 5, 2014

  Actual Average Record
Temperature  
Mean Temperature 64 °F 68 °F  
Max Temperature 79 °F 78 °F 95 °F (1954)
Min Temperature 48 °F 58 °F 42 °F (1968)
Degree Days  
Heating Degree Days 1 2  
Month to date heating degree days 10 8  
Since 1 July heating degree days 11 19  
Cooling Degree Days 0 5  
Month to date cooling degree days 27 26  
Year to date cooling degree days 2078 2177  
Growing Degree Days 14 (Base 50)    
Moisture  
Dew Point 47 °F    
Average Humidity 58    
Maximum Humidity 80    
Minimum Humidity 35    
Precipitation  
Precipitation 0.00 in 0.11 in 3.65 in (1910)
Month to date precipitation 0.91 0.59  
Year to date precipitation 49.38 39.06  
Snow  
Snow 0.00 in 0.00 in 0.00 in (2002)
Month to date snowfall 0.0 0.0  
Since 1 July snowfall 0.0 0.0  
Since 1 September snowfall 0.0 0.0  
Snow Depth 0.00 in    
Sea Level Pressure  
Sea Level Pressure 29.89 in    
Wind  
Wind Speed 10 mph (SSW)    
Max Wind Speed 21 mph    
Max Gust Speed 31 mph    
Visibility 10 miles    
Events      
T = Trace of Precipitation, MM = Missing Value Source: NWS Daily Summary

Daily Weather History Graph

Daily Weather History Graph

Search for Another Location

Airport or City:

Trip Planner

Search our weather history database for the weather conditions in past years. The results will help you decide how hot, cold, wet, or windy it might be!

Date:

Astronomy

Oct. 05, 2014 Rise Set
Actual Time 6:57 AM CDT 6:38 PM CDT
Civil Twilight 6:32 AM CDT 7:03 PM CDT
Nautical Twilight 6:03 AM CDT 7:32 PM CDT
Astronomical Twilight 5:33 AM CDT 8:02 PM CDT
Moon 4:50 PM CDT (10/5) 3:41 AM CDT (10/5)
Length of Visible Light 12h 31m
Length of Day
11h 40m
Waxing Gibbous, 89% of the Moon is Illuminated
Oct 5
Waxing Gibbous
Oct 8
Full
Oct 15
Last Quarter
Oct 23
New
Oct 30
First Quarter

Hourly Weather History & Observations

Time (CDT) Temp. Dew Point Humidity Pressure Visibility Wind Dir Wind Speed Gust Speed Precip Events Conditions
12:54 AM 48.9 °F 42.1 °F 77% 29.97 in 10.0 mi South 4.6 mph - N/A   Clear
1:54 AM 50.0 °F 43.0 °F 77% 29.97 in 10.0 mi Calm Calm - N/A   Clear
2:54 AM 48.9 °F 42.1 °F 77% 29.95 in 10.0 mi South 3.5 mph - N/A   Clear
3:54 AM 50.0 °F 42.1 °F 74% 29.94 in 10.0 mi SSW 4.6 mph - N/A   Clear
4:54 AM 51.1 °F 44.1 °F 77% 29.93 in 10.0 mi South 4.6 mph - N/A   Overcast
5:54 AM 54.0 °F 44.1 °F 69% 29.94 in 10.0 mi SSW 10.4 mph - N/A   Overcast
6:54 AM 55.0 °F 44.1 °F 67% 29.94 in 10.0 mi SSW 6.9 mph - N/A   Mostly Cloudy
7:54 AM 55.9 °F 45.0 °F 67% 29.94 in 10.0 mi South 9.2 mph - N/A   Mostly Cloudy
8:54 AM 61.0 °F 45.0 °F 56% 29.94 in 10.0 mi SSW 10.4 mph - N/A   Mostly Cloudy
9:54 AM 64.9 °F 46.0 °F 50% 29.93 in 10.0 mi SSW 12.7 mph 23.0 mph N/A   Scattered Clouds
10:54 AM 69.1 °F 46.9 °F 45% 29.92 in 10.0 mi SSW 15.0 mph 27.6 mph N/A   Scattered Clouds
11:54 AM 72.0 °F 46.9 °F 41% 29.90 in 10.0 mi SW 16.1 mph 26.5 mph N/A   Scattered Clouds
12:54 PM 75.9 °F 46.9 °F 36% 29.88 in 10.0 mi SW 21.9 mph 29.9 mph N/A   Scattered Clouds
1:54 PM 77.0 °F 48.0 °F 36% 29.84 in 10.0 mi SSW 15.0 mph 27.6 mph N/A   Scattered Clouds
2:54 PM 78.1 °F 48.9 °F 36% 29.83 in 10.0 mi SW 19.6 mph 27.6 mph N/A   Scattered Clouds
3:54 PM 77.0 °F 48.9 °F 37% 29.82 in 10.0 mi SW 13.8 mph - N/A   Mostly Cloudy
4:54 PM 75.9 °F 50.0 °F 40% 29.82 in 10.0 mi SSW 13.8 mph 21.9 mph N/A   Scattered Clouds
5:54 PM 75.0 °F 51.1 °F 43% 29.82 in 10.0 mi SW 11.5 mph 18.4 mph N/A   Mostly Cloudy
6:54 PM 72.0 °F 51.1 °F 48% 29.82 in 10.0 mi SSW 10.4 mph - N/A   Scattered Clouds
7:54 PM 71.1 °F 51.1 °F 49% 29.83 in 10.0 mi SW 8.1 mph 24.2 mph N/A   Mostly Cloudy
8:54 PM 70.0 °F 51.1 °F 51% 29.85 in 10.0 mi SSW 6.9 mph - N/A   Partly Cloudy
9:54 PM 68.0 °F 51.1 °F 55% 29.86 in 10.0 mi SSW 11.5 mph - N/A   Partly Cloudy
10:54 PM 66.9 °F 50.0 °F 54% 29.86 in 10.0 mi SSW 8.1 mph - N/A   Partly Cloudy
11:54 PM 66.0 °F 48.9 °F 54% 29.86 in 10.0 mi SSW 6.9 mph - N/A   Partly Cloudy